Content
SEND FEEDBACK

Daily
Averages
Monthly
Summary
United States of America

LAKE MILLS, IOWA


Home > North America > United States > Iowa
Elevation: 1280 feet     Latitude: 43 25N     Longitude: 093 32W

WEATHER
 
SELECT A DAY
Number of Records: 115,847;   Date Range: 9/1/09 - 8/29/14
 
SHARE

PRINT THIS DATA

[ ← Previous Day ]
WEATHER ALMANAC - FEBRUARY 13, 2013
[ Next Day → ]
[ °C ]   °F
Weather ElementAverageHighLow
Temperature32.3 °F41 °F (2:15 pm)23 °F (4:15 am)
Dewpoint27.7 °F32 °F (2:15 pm)21.2 °F (4:15 am)
Humidity83.5 %93 % (1:35 am)70 % (1:55 pm)
Barometer29.70 in29.82 in (12:35 am)29.59 in (9:15 pm)
Wind Speed5.8 mph12.7 mph (2:55 pm)
Wind Gust18.4 mph (10:35 pm)
Weather ElementAverage
Visibility10 mi
Wind DirectionSSW (194.9 °)

Weather ElementTotal
Precipitation---
Heating Degree Days33 (Base 65)
Averaged from 70 records on February 13, 2013
WEATHER CONDITIONS BREAKOUT
WIND DIRECTION BREAKOUT
WEATHER BY HOUR - FEBRUARY 13, 2013
[ °C ]   °F
Local TimeTemperatureDewpointHumidityBarometerVisibilityWind DirectionWind SpeedGust SpeedPrecipitationEventsConditions
12:35 AM28.4 °F23.0 °F80 %29.82 in10.0 miWest (280°)3.5 mphClear
12:55 AM28.4 °F23.0 °F80 %29.82 in10.0 miCalmClear
1:15 AM28.4 °F24.8 °F86 %29.81 in10.0 miWest (270°)4.6 mphClear
1:35 AM26.6 °F24.8 °F93 %29.81 in10.0 miWest (270°)3.5 mphClear
1:55 AM26.6 °F24.8 °F93 %29.80 in10.0 miCalmClear
2:15 AM26.6 °F23.0 °F86 %29.80 in10.0 miWest (270°)3.5 mphClear
2:35 AM26.6 °F23.0 °F86 %29.80 in10.0 miWest (260°)3.5 mphClear
2:55 AM26.6 °F23.0 °F86 %29.80 in10.0 miCalmClear
3:15 AM26.6 °F23.0 °F86 %29.79 in10.0 miWest (270°)3.5 mphClear
3:35 AM26.6 °F23.0 °F86 %29.78 in10.0 miWest (270°)3.5 mphClear
3:55 AM24.8 °F23.0 °F93 %29.78 in10.0 miWest (270°)3.5 mphClear
4:15 AM23.0 °F21.2 °F93 %29.78 in10.0 miCalmClear
4:35 AM24.8 °F23.0 °F93 %29.77 in10.0 miCalmClear
4:55 AM23.0 °F21.2 °F93 %29.78 in10.0 miCalmClear
5:15 AM23.0 °F21.2 °F93 %29.77 in10.0 miCalmClear
5:35 AM23.0 °F21.2 °F93 %29.78 in10.0 miWest (280°)3.5 mphScattered Clouds
5:55 AM24.8 °F23.0 °F93 %29.77 in10.0 miCalmMostly Cloudy
6:15 AM26.6 °F23.0 °F86 %29.77 in10.0 miCalmOvercast
6:35 AM24.8 °F21.2 °F86 %29.75 in10.0 miCalmOvercast
6:55 AM24.8 °F21.2 °F86 %29.76 in10.0 miCalmScattered Clouds
7:15 AM23.0 °F21.2 °F93 %29.76 in10.0 miWSW (250°)3.5 mphClear
7:35 AM23.0 °F21.2 °F93 %29.76 in10.0 miCalmClear
7:55 AM24.8 °F23.0 °F93 %29.77 in10.0 miWest (270°)4.6 mphClear
8:15 AM26.6 °F23.0 °F86 %29.76 in10.0 miWSW (250°)3.5 mphClear
8:35 AM26.6 °F23.0 °F86 %29.76 in10.0 miWest (260°)3.5 mphClear
8:55 AM28.4 °F24.8 °F86 %29.76 in10.0 miWSW (250°)6.9 mphMostly Cloudy
9:15 AM28.4 °F24.8 °F86 %29.76 in10.0 miWest (260°)3.5 mphScattered Clouds
9:35 AM28.4 °F24.8 °F86 %29.75 in10.0 miWSW (240°)5.8 mphScattered Clouds
9:55 AM30.2 °F24.8 °F80 %29.75 in10.0 miWSW (250°)5.8 mphClear
10:15 AM30.2 °F26.6 °F86 %29.74 in10.0 miSW (230°)6.9 mphClear
10:55 AM32.0 °F26.6 °F80 %29.74 in10.0 miSW (230°)10.4 mphMostly Cloudy
11:15 AM33.8 °F28.4 °F81 %29.73 in10.0 miWSW (240°)9.2 mphClear
11:35 AM32.0 °F28.4 °F87 %29.74 in10.0 miWSW (250°)11.5 mphClear
11:55 AM33.8 °F28.4 °F81 %29.73 in10.0 miSW (230°)10.4 mphScattered Clouds
12:15 PM33.8 °F30.2 °F87 %29.73 in10.0 miWSW (240°)8.1 mphMostly Cloudy
12:35 PM35.6 °F30.2 °F81 %29.72 in10.0 miWSW (240°)9.2 mphOvercast
12:55 PM35.6 °F30.2 °F81 %29.71 in10.0 miSW (230°)8.1 mphMostly Cloudy
1:15 PM37.4 °F30.2 °F75 %29.70 in10.0 miSW (220°)9.2 mphClear
1:35 PM37.4 °F30.2 °F75 %29.69 in10.0 miSW (220°)9.2 mphScattered Clouds
1:55 PM39.2 °F30.2 °F70 %29.68 in10.0 miSW (230°)10.4 mphClear
2:15 PM41.0 °F32.0 °F70 %29.68 in10.0 miSW (220°)11.5 mphClear
2:35 PM41.0 °F32.0 °F70 %29.67 in10.0 miSW (230°)9.2 mphClear
2:55 PM41.0 °F32.0 °F70 %29.66 in10.0 miSW (220°)12.7 mphClear
3:15 PM41.0 °F32.0 °F70 %29.66 in10.0 miSW (230°)11.5 mphClear
3:35 PM41.0 °F32.0 °F70 %29.66 in10.0 miSW (230°)12.7 mphClear
3:55 PM41.0 °F32.0 °F70 %29.65 in10.0 miSW (220°)8.1 mphClear
4:15 PM41.0 °F32.0 °F70 %29.65 in10.0 miSW (220°)8.1 mphScattered Clouds
4:35 PM39.2 °F32.0 °F75 %29.65 in10.0 miSW (220°)5.8 mphScattered Clouds
4:55 PM39.2 °F32.0 °F75 %29.64 in10.0 miSSW (200°)5.8 mphScattered Clouds
5:15 PM37.4 °F32.0 °F81 %29.64 in10.0 miSouth (190°)6.9 mphMostly Cloudy
5:35 PM37.4 °F32.0 °F81 %29.63 in10.0 miSouth (190°)6.9 mphOvercast
5:55 PM37.4 °F32.0 °F81 %29.62 in10.0 miSouth (190°)5.8 mphOvercast
6:15 PM35.6 °F32.0 °F87 %29.62 in10.0 miSSW (200°)4.6 mphOvercast
6:35 PM37.4 °F32.0 °F81 %29.62 in10.0 miSW (220°)8.1 mphOvercast
6:55 PM37.4 °F32.0 °F81 %29.62 in10.0 miSW (230°)6.9 mphOvercast
7:15 PM39.2 °F32.0 °F75 %29.62 in10.0 miWest (260°)10.4 mph16.1 mphDrizzle
7:35 PM37.4 °F32.0 °F81 %29.62 in10.0 miWest (280°)9.2 mphRainLight Rain
7:55 PM37.4 °F32.0 °F81 %29.61 in10.0 miCalmOvercast
8:15 PM35.6 °F32.0 °F87 %29.60 in10.0 miCalmOvercast
8:35 PM35.6 °F32.0 °F87 %29.60 in10.0 miWSW (240°)3.5 mphOvercast
8:55 PM37.4 °F32.0 °F81 %29.60 in10.0 miSW (230°)5.8 mphOvercast
9:15 PM35.6 °F32.0 °F87 %29.59 in10.0 miWSW (240°)6.9 mphOvercast
9:35 PM35.6 °F32.0 °F87 %29.59 in10.0 miWSW (250°)6.9 mphOvercast
9:55 PM37.4 °F32.0 °F81 %29.59 in10.0 miWest (270°)8.1 mphOvercast
10:15 PM35.6 °F32.0 °F87 %29.59 in10.0 miWest (270°)9.2 mphOvercast
10:35 PM35.6 °F30.2 °F81 %29.60 in10.0 miWest (280°)12.7 mph18.4 mphOvercast
10:55 PM33.8 °F30.2 °F87 %29.60 in10.0 miWest (270°)12.7 mphMostly Cloudy
11:15 PM33.8 °F30.2 °F87 %29.60 in10.0 miWest (270°)10.4 mphScattered Clouds
11:35 PM33.8 °F32.0 °F93 %29.60 in10.0 miWest (270°)9.2 mphOvercast
11:55 PM33.8 °F30.2 °F87 %29.60 in10.0 miWest (270°)6.9 mphOvercast
Hourly data recorded from KFXY, located miles away from Lake Mills, Iowa







STORIES FROM OUR PARTNERS